Gillette, WY

4:57 PM MDT on June 26, 2017 (GMT -0600)
Gillette-Campbell County

Weather History for KGCC - September, 2014

Change the Weather History Date:

Sunday, September 28, 2014

  Actual Average Record
Temperature  
Mean Temperature 52 °F 52 °F  
Max Temperature 57 °F 66 °F 93 °F (2001)
Min Temperature 46 °F 38 °F 20 °F (1985)
Degree Days  
Heating Degree Days 13 13  
Month to date heating degree days 207 211  
Since 1 July heating degree days 256 268  
Cooling Degree Days 0 0  
Month to date cooling degree days 57 40  
Year to date cooling degree days 412 500  
Growing Degree Days 2 (Base 50)    
Moisture  
Dew Point 45 °F    
Average Humidity 74    
Maximum Humidity 93    
Minimum Humidity 55    
Precipitation  
Precipitation 0.04 in 0.04 in 0.82 in (1988)
Month to date precipitation 0.71 1.10  
Year to date precipitation 15.97 11.58  
Sea Level Pressure  
Sea Level Pressure 30.16 in    
Wind  
Wind Speed 12 mph (NNE)    
Max Wind Speed 21 mph    
Max Gust Speed 25 mph    
Visibility 7 miles    
Events Rain    
T = Trace of Precipitation, MM = Missing Value Source: NWS Daily Summary

Daily Weather History Graph

Daily Weather History Graph

Search for Another Location

Airport or City:

Trip Planner

Search our weather history database for the weather conditions in past years. The results will help you decide how hot, cold, wet, or windy it might be!

Date:

Astronomy

Sep. 28, 2014 Rise Set
Actual Time 6:56 AM MDT 6:48 PM MDT
Civil Twilight 6:27 AM MDT 7:17 PM MDT
Nautical Twilight 5:53 AM MDT 7:50 PM MDT
Astronomical Twilight 5:19 AM MDT 8:25 PM MDT
Moon 11:22 AM MDT (9/28) 9:25 PM MDT (9/28)
Length of Visible Light 12h 49m
Length of Day
11h 51m
Waxing Crescent, 19% of the Moon is Illuminated
Sep 28
Waxing Crescent
Oct 1
First Quarter
Oct 8
Full
Oct 15
Last Quarter
Oct 23
New

Hourly Weather History & Observations

Time (MDT) Temp. Windchill Dew Point Humidity Pressure Visibility Wind Dir Wind Speed Gust Speed Precip Events Conditions
12:36 AM 57.9 °F - 39.9 °F 51% 30.14 in 10.0 mi North 20.7 mph - N/A   Overcast
12:53 AM 57.0 °F - 41.0 °F 55% 30.04 in 10.0 mi North 19.6 mph - N/A   Overcast
1:53 AM 55.9 °F - 41.0 °F 57% 30.05 in 10.0 mi North 15.0 mph - N/A   Overcast
2:53 AM 54.0 °F - 41.0 °F 62% 30.06 in 10.0 mi North 17.3 mph - N/A   Overcast
3:53 AM 53.1 °F - 41.0 °F 64% 30.07 in 10.0 mi North 16.1 mph - N/A   Overcast
4:53 AM 52.0 °F - 39.9 °F 63% 30.07 in 10.0 mi North 18.4 mph - N/A   Overcast
5:53 AM 50.0 °F - 41.0 °F 71% 30.10 in 10.0 mi North 16.1 mph - N/A   Overcast
6:53 AM 48.0 °F - 42.1 °F 80% 30.12 in 10.0 mi North 11.5 mph - N/A   Overcast
7:08 AM 48.0 °F - 42.1 °F 80% 30.19 in 10.0 mi North 15.0 mph - N/A   Overcast
7:51 AM 46.4 °F 40.1 °F 42.8 °F 87% 30.20 in 10.0 mi NNE 15.0 mph - N/A   Overcast
7:53 AM 46.9 °F - 43.0 °F 86% 30.14 in 10.0 mi NNE 13.8 mph - N/A   Overcast
8:53 AM 46.0 °F 39.9 °F 43.0 °F 89% 30.16 in 10.0 mi North 13.8 mph - N/A   Overcast
9:53 AM 46.0 °F 39.9 °F 44.1 °F 93% 30.17 in 5.0 mi North 13.8 mph - N/A   Overcast
10:08 AM 46.0 °F 40.6 °F 44.1 °F 93% 30.23 in 2.5 mi North 11.5 mph - N/A   Overcast
10:19 AM 46.4 °F 40.4 °F 44.6 °F 93% 30.22 in 4.0 mi NNE 13.8 mph - N/A   Overcast
10:30 AM 46.0 °F 39.9 °F 44.1 °F 93% 30.22 in 2.5 mi North 13.8 mph - N/A   Overcast
10:53 AM 46.0 °F 39.9 °F 44.1 °F 93% 30.16 in 3.0 mi North 13.8 mph - N/A   Overcast
11:45 AM 46.9 °F - 45.0 °F 93% 30.21 in 2.5 mi NNE 12.7 mph - N/A   Overcast
11:53 AM 46.9 °F - 45.0 °F 93% 30.16 in 2.0 mi North 12.7 mph - N/A   Overcast
12:53 PM 48.0 °F - 46.0 °F 93% 30.17 in 2.0 mi North 12.7 mph - N/A   Overcast
1:15 PM 48.0 °F - 46.0 °F 93% 30.21 in 3.0 mi North 11.5 mph - N/A   Overcast
1:23 PM 48.0 °F - 46.0 °F 93% 30.21 in 2.5 mi NNE 11.5 mph - N/A   Overcast
1:34 PM 48.0 °F - 46.0 °F 93% 30.20 in 3.0 mi NNE 11.5 mph - N/A   Overcast
1:38 PM 48.0 °F - 46.0 °F 93% 30.21 in 2.5 mi North 8.1 mph - N/A   Overcast
1:51 PM 48.2 °F - 46.4 °F 93% 30.19 in 1.8 mi North 11.5 mph - N/A   Overcast
1:53 PM 48.0 °F - 46.0 °F 93% 30.15 in 2.0 mi North 12.7 mph - N/A   Overcast
2:26 PM 48.9 °F - 46.9 °F 93% 30.18 in 4.0 mi NNE 13.8 mph - N/A   Overcast
2:53 PM 48.0 °F - 46.0 °F 93% 30.15 in 5.0 mi North 15.0 mph - N/A   Overcast
3:11 PM 48.9 °F - 46.9 °F 93% 30.18 in 9.0 mi NNE 12.7 mph - N/A   Overcast
3:33 PM 48.9 °F - 46.9 °F 93% 30.17 in 10.0 mi NNE 12.7 mph - N/A   Overcast
3:53 PM 48.9 °F - 46.9 °F 93% 30.13 in 9.0 mi NNE 13.8 mph - N/A   Overcast
4:37 PM 50.0 °F - 46.0 °F 86% 30.16 in 10.0 mi NNE 18.4 mph - N/A   Overcast
4:53 PM 50.0 °F - 46.0 °F 86% 30.13 in 10.0 mi NNE 12.7 mph - N/A   Overcast
5:51 PM 48.2 °F - 46.4 °F 93% 30.17 in 7.0 mi NNE 9.2 mph - N/A   Overcast
5:53 PM 48.9 °F - 46.9 °F 93% 30.14 in 7.0 mi NNE 8.1 mph - N/A   Overcast
6:22 PM 48.9 °F - 46.0 °F 90% 30.18 in 10.0 mi NNE 9.2 mph - N/A   Overcast
6:48 PM 48.2 °F - 46.4 °F 93% 30.17 in 10.0 mi NNE 9.2 mph - N/A   Overcast
6:53 PM 48.9 °F - 46.0 °F 90% 30.14 in 10.0 mi North 10.4 mph - N/A   Overcast
7:12 PM 48.9 °F - 46.0 °F 90% 30.18 in 10.0 mi NE 8.1 mph - N/A   Overcast
7:53 PM 48.9 °F - 46.0 °F 90% 30.17 in 10.0 mi North 4.6 mph - N/A   Overcast
8:53 PM 48.9 °F - 46.0 °F 90% 30.16 in 10.0 mi ENE 6.9 mph - N/A   Overcast
9:12 PM 48.0 °F - 46.0 °F 93% 30.16 in 10.0 mi NE 6.9 mph - N/A   Overcast
9:53 PM 48.0 °F - 46.0 °F 93% 30.13 in 10.0 mi NNE 9.2 mph - N/A   Overcast
10:53 PM 48.2 °F - 46.4 °F 93% 30.15 in 10.0 mi Calm Calm - N/A   Overcast
11:00 PM 48.2 °F - 46.4 °F 93% 30.14 in 10.0 mi NNW 5.8 mph - N/A   Overcast
11:53 PM 48.0 °F - 46.0 °F 93% 30.10 in 8.0 mi NNE 8.1 mph - 0.04 in Rain Light Rain